Showing default

IRIDIUM 121, 42812

Orbit data source: Space-Track

IRIDIUM 121, 42812 is a payload satellite owned by Iridium (US) in LEO that was launched on Sun, 25 Jun 2017 UTC via an FALCON 9 launch vehicle from the Air Force Western Test Range (AFWTR). Payload-class satellites include a variety of spacecraft equipped with specific instruments for various scientific and technological missions. These include communications satellites like Starlink; space stations such as the ISS; scientific satellites like the Hubble; Earth observation satellites from companies like Planet Labs, Umbra, and HawkEye 360; GPS; miniature CubeSats for education and research; and military/defense satellites.

Loading next visibility...
Identifier
42812, 2017-039K
Orbit
LEO
Country
Flag of USUS
Related business
Manufacturer
OATK SSG Gilbert
Mission
Operational Commercial Communications
Bus & Motor
ELITEBUS, Unknown motor
Mass
860 kg wet, 700 kg dry
Launch date (UTC)
2017-06-25 (8 years ago)
Launch vehicle
FALCON 9
Launch site
Air Force Western Test Range (AFWTR)
Object type
Payload
Rocket body
Debris
Shape & HBR
Trap Box + 2 Pan, 4.7 m
Radar Cross Section
14.423 m², Large (>1 m²)

Expand to show TLE details & history
Last TLE update: 1 day ago

TLE from 1 day ago
0 IRIDIUM 121
1 42812U 17039K   25260.02392225  .00000054  00000-0  12177-4 0  9998
2 42812  86.3924 107.8854 0002198  84.8921 275.2526 14.34217444430679
Epoch: 2025-09-17T00:34Z
TLE epoch observation values (Epoch: 2025-09-17T00:34:26.882Z)
Latitude
0.00002°
Longitude
103.06758°
Altitude
780.575 km
Speed
7.464 km/s
True Right ascension
07h 11m 32s
True Declination
0° 00' 00"
Sunlit
Object was in daylight at epoch
Visualization orbit readout
Latitude
Unknown
Longitude
Unknown
Altitude
Unknown
Speed
Unknown
Apparent Right ascension
Unknown
Apparent Declination
Unknown
Sunlit
N/A
Visualization observer readout
Local Sidereal Time
18:08:16
Azimuth
Unknown
Elevation
Unknown
Doppler factor
Unknown
Orbital elements
Apogee altitude
776.205 km
Perigee altitude
773.061 km
Semi-major axis
7,152.77 km
Eccentricity
0.00022
Inclination
86.3924°
RAAN
107.8854°
Arg. of periapsis
84.8921°
True anomaly
275.22752°
Mean anomaly
275.2526°
Eccentric anomaly
275.24006°
Mean motion
3.58783 °/min
Orbital period
100.34 mins
BSTAR
0.000012177
Loading maneuver chart data...
Computing Atmospheric mass density...
Loading historical data...
Loading historical data...
Loading historical data...
Loading historical data...
Loading historical data...
Loading historical data...
Loading historical data...

Documentation

Showing up to 5 results
|